RYR631K EIDW-LGTS

Flight info

Callsign RYR631K
Flight time 3h 32m
Altitude 35000
Route ENDEQ3J ENDEQ Q36 ALAVA Z195 MALUD UL975 WAL M16 DOLAS DCT NAVPI DCT DODEN DCT NEGIX DCT DINKU DCT BESNI DCT LATLO DCT OBEDI DCT TEBLI DCT BOSNA DCT NORPI DCT REMSO DCT MEDUX UM867 KOGAT DCT ERANA T389 ALIKO
Aircraft B738/M-SDE2E3FGHIRWXY/LB1

Departure

Time 2026-05-06 15:36
Airport Dublin Airport (EIDW)

Arrival

Time 2026-05-06 19:08
Airport Thessaloniki Macedonia International Airport (LGTS)
Time Latitude Longitude Altitude Speed Heading
2026-05-06 14:38 53.43009 -6.24943 210 ft 0 kts
2026-05-06 15:16 53.42990 -6.24945 213 ft 3 kts 356°
2026-05-06 15:16 53.42967 -6.24938 213 ft 3 kts 333°
2026-05-06 15:17 53.42951 -6.24915 214 ft 3 kts 284°
2026-05-06 15:17 53.42948 -6.24880 214 ft 3 kts 276°
2026-05-06 15:17 53.42945 -6.24840 210 ft 3 kts 277°
2026-05-06 15:17 53.42942 -6.24799 210 ft 3 kts 277°
2026-05-06 15:18 53.42939 -6.24759 216 ft 3 kts 276°
2026-05-06 15:18 53.42939 -6.24751 214 ft 0 kts 275°
2026-05-06 15:24 53.42939 -6.24766 218 ft 3 kts 275°
2026-05-06 15:24 53.42935 -6.24831 210 ft 8 kts 244°
2026-05-06 15:24 53.42893 -6.24914 214 ft 10 kts 227°
2026-05-06 15:25 53.42847 -6.24997 213 ft 9 kts 227°
2026-05-06 15:25 53.42813 -6.25044 212 ft 6 kts 212°
2026-05-06 15:25 53.42795 -6.25102 210 ft 6 kts 268°
2026-05-06 15:25 53.42796 -6.25171 210 ft 6 kts 271°
2026-05-06 15:26 53.42794 -6.25239 210 ft 6 kts 255°
2026-05-06 15:26 53.42768 -6.25297 217 ft 7 kts 227°
2026-05-06 15:26 53.42737 -6.25351 213 ft 6 kts 225°
2026-05-06 15:26 53.42706 -6.25405 217 ft 7 kts 226°
2026-05-06 15:27 53.42657 -6.25488 210 ft 14 kts 224°
2026-05-06 15:27 53.42574 -6.25630 215 ft 19 kts 226°
2026-05-06 15:27 53.42484 -6.25782 210 ft 18 kts 224°
2026-05-06 15:27 53.42398 -6.25929 212 ft 17 kts 226°
2026-05-06 15:28 53.42315 -6.26072 218 ft 17 kts 227°
2026-05-06 15:28 53.42269 -6.26245 212 ft 16 kts 263°
2026-05-06 15:28 53.42274 -6.26430 214 ft 16 kts 275°
2026-05-06 15:28 53.42284 -6.26606 213 ft 15 kts 274°
2026-05-06 15:29 53.42292 -6.26774 210 ft 14 kts 275°
2026-05-06 15:29 53.42301 -6.26936 210 ft 14 kts 275°
2026-05-06 15:29 53.42310 -6.27091 210 ft 13 kts 276°
2026-05-06 15:29 53.42318 -6.27241 210 ft 13 kts 275°
2026-05-06 15:30 53.42326 -6.27398 210 ft 15 kts 275°
2026-05-06 15:30 53.42338 -6.27603 215 ft 20 kts 275°
2026-05-06 15:30 53.42352 -6.27860 218 ft 23 kts 275°
2026-05-06 15:30 53.42366 -6.28126 216 ft 23 kts 275°
2026-05-06 15:31 53.42381 -6.28385 213 ft 22 kts 276°
2026-05-06 15:31 53.42395 -6.28636 210 ft 21 kts 275°
2026-05-06 15:31 53.42408 -6.28875 219 ft 19 kts 275°
2026-05-06 15:32 53.42349 -6.29073 209 ft 0 kts 181°
2026-05-06 15:33 53.42327 -6.29073 209 ft 8 kts 180°
2026-05-06 15:33 53.42262 -6.29065 213 ft 10 kts 172°
2026-05-06 15:33 53.42237 -6.29051 208 ft 1 kts 127°
2026-05-06 15:34 53.42237 -6.29039 208 ft 1 kts 91°
2026-05-06 15:34 53.42237 -6.29027 208 ft 1 kts 86°
2026-05-06 15:34 53.42240 -6.28989 208 ft 5 kts 86°
2026-05-06 15:34 53.42240 -6.28964 208 ft 3 kts 93°
2026-05-06 15:35 53.42232 -6.28833 216 ft 19 kts 95°
2026-05-06 15:35 53.42202 -6.28254 212 ft 84 kts 95°
2026-05-06 15:35 53.42127 -6.26918 211 ft 144 kts 95°
2026-05-06 15:35 53.42032 -6.24995 378 ft 179 kts 94°
2026-05-06 15:36 53.41979 -6.22903 1150 ft 178 kts 92°
2026-05-06 15:36 53.41935 -6.20815 1955 ft 180 kts 92°
2026-05-06 15:36 53.41860 -6.18713 2673 ft 189 kts 97°
2026-05-06 15:36 53.41666 -6.16400 2915 ft 215 kts 98°
2026-05-06 15:37 53.41464 -6.13796 3237 ft 232 kts 97°
2026-05-06 15:37 53.41281 -6.11044 3720 ft 244 kts 96°
2026-05-06 15:37 53.41102 -6.08102 4118 ft 261 kts 96°
2026-05-06 15:37 53.40926 -6.05040 4889 ft 265 kts 95°
2026-05-06 15:38 53.40951 -6.01945 5724 ft 268 kts 84°
2026-05-06 15:38 53.41191 -5.98824 6510 ft 272 kts 82°
2026-05-06 15:38 53.41455 -5.95652 7281 ft 277 kts 82°
2026-05-06 15:38 53.41704 -5.92477 8039 ft 281 kts 83°
2026-05-06 15:39 53.41942 -5.89203 8707 ft 285 kts 83°
2026-05-06 15:39 53.42173 -5.85886 8991 ft 287 kts 83°
2026-05-06 15:39 53.42400 -5.82532 8995 ft 290 kts 83°
2026-05-06 15:39 53.42627 -5.79178 9039 ft 290 kts 83°
2026-05-06 15:40 53.42858 -5.75802 9471 ft 293 kts 83°
2026-05-06 15:40 53.43090 -5.72409 10283 ft 294 kts 83°
2026-05-06 15:40 53.43329 -5.68899 10599 ft 315 kts 83°
2026-05-06 15:40 53.43582 -5.65184 10837 ft 335 kts 83°
2026-05-06 15:41 53.43849 -5.61247 11377 ft 344 kts 83°
2026-05-06 15:41 53.44118 -5.57237 12079 ft 348 kts 83°
2026-05-06 15:41 53.44388 -5.53185 12773 ft 351 kts 83°
2026-05-06 15:41 53.44639 -5.49101 13481 ft 354 kts 86°
2026-05-06 15:42 53.44632 -5.44955 14149 ft 357 kts 92°
2026-05-06 15:42 53.44481 -5.40775 14801 ft 361 kts 94°
2026-05-06 15:42 53.44309 -5.36555 15424 ft 365 kts 94°
2026-05-06 15:42 53.44153 -5.32287 16055 ft 368 kts 93°
2026-05-06 15:43 53.44016 -5.27973 16660 ft 372 kts 92°
2026-05-06 15:43 53.43894 -5.23688 17251 ft 375 kts 92°
2026-05-06 15:43 53.43771 -5.19295 17836 ft 378 kts 92°
2026-05-06 15:43 53.43647 -5.14867 18419 ft 382 kts 92°
2026-05-06 15:44 53.43520 -5.10410 18987 ft 385 kts 92°
2026-05-06 15:44 53.43390 -5.05907 19532 ft 388 kts 92°
2026-05-06 15:44 53.43258 -5.01366 20056 ft 392 kts 92°
2026-05-06 15:44 53.43123 -4.96782 20585 ft 395 kts 92°
2026-05-06 15:45 53.42985 -4.92170 21086 ft 398 kts 92°
2026-05-06 15:45 53.42845 -4.87576 21564 ft 401 kts 92°
2026-05-06 15:45 53.42697 -4.82900 22028 ft 404 kts 93°
2026-05-06 15:45 53.42538 -4.78174 22482 ft 407 kts 93°
2026-05-06 15:46 53.42373 -4.73416 22946 ft 410 kts 93°
2026-05-06 15:46 53.42205 -4.68630 23404 ft 413 kts 93°
2026-05-06 15:46 53.42034 -4.63815 23833 ft 415 kts 93°
2026-05-06 15:46 53.41861 -4.58967 24246 ft 418 kts 93°
2026-05-06 15:47 53.41686 -4.54082 24661 ft 421 kts 93°
2026-05-06 15:47 53.41509 -4.49180 25086 ft 423 kts 93°
2026-05-06 15:47 53.41331 -4.44308 25491 ft 425 kts 93°
2026-05-06 15:47 53.41148 -4.39366 25870 ft 427 kts 93°
2026-05-06 15:48 53.40961 -4.34369 26237 ft 430 kts 93°
2026-05-06 15:48 53.40774 -4.29358 26603 ft 432 kts 93°
2026-05-06 15:48 53.40582 -4.24325 26966 ft 434 kts 93°
2026-05-06 15:48 53.40385 -4.19272 27297 ft 436 kts 93°
2026-05-06 15:49 53.40185 -4.14187 27618 ft 438 kts 93°
2026-05-06 15:49 53.39986 -4.09152 27944 ft 440 kts 93°
2026-05-06 15:49 53.39781 -4.04016 28298 ft 442 kts 93°
2026-05-06 15:49 53.39575 -3.98881 28616 ft 443 kts 92°
2026-05-06 15:50 53.39546 -3.93714 28882 ft 445 kts 85°
2026-05-06 15:50 53.39803 -3.88527 29157 ft 447 kts 83°
2026-05-06 15:50 53.40120 -3.83338 29443 ft 449 kts 83°
2026-05-06 15:50 53.40429 -3.78130 29727 ft 450 kts 84°
2026-05-06 15:51 53.40714 -3.72904 30000 ft 451 kts 84°
2026-05-06 15:51 53.40974 -3.67711 30241 ft 453 kts 84°
2026-05-06 15:51 53.41226 -3.62433 30492 ft 455 kts 85°
2026-05-06 15:51 53.41278 -3.57138 30804 ft 455 kts 92°
2026-05-06 15:52 53.41058 -3.51858 31174 ft 453 kts 94°
2026-05-06 15:52 53.40780 -3.46609 31492 ft 453 kts 95°
2026-05-06 15:52 53.40499 -3.41352 31769 ft 452 kts 94°
2026-05-06 15:52 53.40235 -3.36093 32022 ft 453 kts 94°
2026-05-06 15:53 53.39988 -3.30833 32321 ft 453 kts 94°
2026-05-06 15:53 53.39755 -3.25647 32618 ft 452 kts 94°
2026-05-06 15:53 53.39520 -3.20399 32894 ft 452 kts 94°
2026-05-06 15:53 53.39281 -3.15146 33173 ft 452 kts 94°
2026-05-06 15:54 53.39049 -3.09900 33439 ft 451 kts 94°
2026-05-06 15:54 53.38846 -3.04665 33703 ft 451 kts 93°
2026-05-06 15:54 53.38656 -2.99427 33944 ft 451 kts 93°
2026-05-06 15:54 53.38467 -2.94191 34183 ft 451 kts 93°
2026-05-06 15:55 53.38274 -2.88945 34400 ft 451 kts 93°
2026-05-06 15:55 53.38076 -2.83697 34605 ft 452 kts 93°
2026-05-06 15:55 53.37871 -2.78452 34814 ft 451 kts 94°
2026-05-06 15:55 53.37669 -2.73322 35016 ft 452 kts 94°
2026-05-06 15:56 53.37250 -2.62890 35026 ft 455 kts 94°
2026-05-06 15:56 53.36815 -2.52348 35008 ft 452 kts 94°
2026-05-06 15:57 53.36374 -2.41891 35016 ft 448 kts 94°
2026-05-06 15:57 53.35933 -2.31515 35016 ft 446 kts 94°
2026-05-06 15:58 53.35292 -2.21212 35009 ft 445 kts 99°
2026-05-06 15:58 53.34215 -2.11084 35024 ft 446 kts 101°
2026-05-06 15:59 53.33098 -2.00851 35024 ft 448 kts 100°
2026-05-06 15:59 53.32009 -1.90565 35028 ft 450 kts 100°
2026-05-06 16:00 53.30920 -1.80204 35018 ft 453 kts 100°
2026-05-06 16:00 53.29819 -1.69805 35014 ft 455 kts 100°
2026-05-06 16:01 53.28707 -1.59429 35008 ft 457 kts 100°
2026-05-06 16:01 53.27577 -1.48987 35000 ft 457 kts 100°
2026-05-06 16:02 53.26442 -1.38539 35002 ft 456 kts 101°
2026-05-06 16:02 53.25301 -1.28120 35004 ft 455 kts 101°
2026-05-06 16:03 53.24162 -1.17815 35004 ft 454 kts 101°
2026-05-06 16:03 53.23012 -1.07502 35015 ft 451 kts 101°
2026-05-06 16:04 53.21859 -0.97221 35024 ft 450 kts 101°
2026-05-06 16:04 53.20700 -0.86969 35034 ft 449 kts 101°
2026-05-06 16:05 53.19540 -0.76818 35042 ft 448 kts 101°
2026-05-06 16:05 53.18367 -0.66620 35046 ft 449 kts 101°
2026-05-06 16:06 53.17184 -0.56406 35047 ft 449 kts 101°
2026-05-06 16:06 53.15995 -0.46187 35047 ft 450 kts 101°
2026-05-06 16:07 53.14791 -0.35951 35048 ft 451 kts 101°
2026-05-06 16:07 53.13585 -0.25770 35048 ft 452 kts 101°
2026-05-06 16:08 53.12359 -0.15503 35043 ft 452 kts 102°
2026-05-06 16:08 53.11127 -0.05240 35048 ft 453 kts 102°
2026-05-06 16:09 53.09880 0.05038 35048 ft 453 kts 102°
2026-05-06 16:09 53.08622 0.15302 35047 ft 453 kts 102°
2026-05-06 16:10 53.07366 0.25499 35036 ft 453 kts 102°
2026-05-06 16:10 53.06095 0.35735 35025 ft 452 kts 102°
2026-05-06 16:11 53.04821 0.45950 35024 ft 451 kts 102°
2026-05-06 16:11 53.03540 0.56137 35019 ft 450 kts 102°
2026-05-06 16:12 53.02261 0.66229 35015 ft 449 kts 102°
2026-05-06 16:12 53.00967 0.76360 35007 ft 448 kts 103°
2026-05-06 16:13 52.99664 0.86484 35014 ft 448 kts 103°
2026-05-06 16:13 52.98359 0.96580 34993 ft 447 kts 103°
2026-05-06 16:14 52.96643 1.06392 35012 ft 445 kts 111°
2026-05-06 16:14 52.94416 1.15971 35000 ft 445 kts 112°
2026-05-06 16:15 52.92166 1.25543 35004 ft 446 kts 112°
2026-05-06 16:15 52.89952 1.35126 35011 ft 446 kts 111°
2026-05-06 16:16 52.87748 1.44741 35000 ft 447 kts 111°
2026-05-06 16:16 52.85550 1.54284 34985 ft 447 kts 111°
2026-05-06 16:17 52.83333 1.63885 35002 ft 447 kts 111°
2026-05-06 16:17 52.81109 1.73470 34986 ft 447 kts 112°
2026-05-06 16:18 52.78890 1.82999 34989 ft 447 kts 112°
2026-05-06 16:18 52.76647 1.92574 35000 ft 447 kts 112°
2026-05-06 16:19 52.74393 2.02146 35002 ft 447 kts 112°
2026-05-06 16:19 52.72135 2.11710 34977 ft 447 kts 112°
2026-05-06 16:20 52.69867 2.21259 34981 ft 447 kts 112°
2026-05-06 16:20 52.67607 2.30732 34977 ft 447 kts 112°
2026-05-06 16:21 52.65329 2.40243 34972 ft 446 kts 112°
2026-05-06 16:21 52.63047 2.49731 34962 ft 446 kts 112°
2026-05-06 16:22 52.60762 2.59193 34961 ft 444 kts 112°
2026-05-06 16:22 52.58492 2.68556 34960 ft 444 kts 112°
2026-05-06 16:23 52.56198 2.77973 34951 ft 444 kts 112°
2026-05-06 16:23 52.53766 2.87279 34952 ft 442 kts 118°
2026-05-06 16:24 52.50815 2.96128 34950 ft 442 kts 120°
2026-05-06 16:24 52.47805 3.04848 34945 ft 442 kts 120°
2026-05-06 16:25 52.44799 3.13645 34942 ft 443 kts 120°
2026-05-06 16:25 52.41809 3.22461 34944 ft 443 kts 120°
2026-05-06 16:26 52.38819 3.31281 34948 ft 443 kts 120°
2026-05-06 16:26 52.35841 3.40039 34944 ft 444 kts 120°
2026-05-06 16:27 52.32836 3.48852 34935 ft 444 kts 120°
2026-05-06 16:27 52.29817 3.57673 34934 ft 444 kts 120°
2026-05-06 16:28 52.26790 3.66479 34935 ft 445 kts 120°
2026-05-06 16:28 52.23763 3.75246 34927 ft 444 kts 120°
2026-05-06 16:29 52.20736 3.83984 34925 ft 444 kts 120°
2026-05-06 16:29 52.17694 3.92746 34918 ft 444 kts 120°
2026-05-06 16:30 52.15165 4.00007 34917 ft 443 kts 120°
2026-05-06 16:30 52.11612 4.10174 34915 ft 441 kts 120°
2026-05-06 16:31 52.08589 4.18778 34919 ft 441 kts 120°
2026-05-06 16:31 52.05546 4.27421 34916 ft 440 kts 120°
2026-05-06 16:32 52.02499 4.36042 34916 ft 440 kts 121°
2026-05-06 16:32 51.99449 4.44641 34919 ft 439 kts 121°
2026-05-06 16:33 51.96417 4.53163 34914 ft 439 kts 121°
2026-05-06 16:34 51.91822 4.66022 34910 ft 440 kts 121°
2026-05-06 16:34 51.88745 4.74595 34906 ft 440 kts 121°
2026-05-06 16:35 51.85682 4.83104 34910 ft 441 kts 121°
2026-05-06 16:35 51.82583 4.91687 34907 ft 442 kts 121°
2026-05-06 16:36 51.79472 5.00265 34910 ft 443 kts 121°
2026-05-06 16:36 51.76352 5.08845 34905 ft 443 kts 121°
2026-05-06 16:37 51.73248 5.17351 34910 ft 443 kts 121°
2026-05-06 16:37 51.70116 5.25902 34905 ft 443 kts 121°
2026-05-06 16:38 51.66973 5.34450 34899 ft 443 kts 121°
2026-05-06 16:38 51.63826 5.42987 34898 ft 443 kts 122°
2026-05-06 16:39 51.60679 5.51498 34888 ft 442 kts 122°
2026-05-06 16:39 51.57549 5.59926 34889 ft 442 kts 122°
2026-05-06 16:40 51.54394 5.68396 34889 ft 441 kts 122°
2026-05-06 16:40 51.51238 5.76844 34889 ft 441 kts 122°
2026-05-06 16:41 51.48079 5.85274 34891 ft 441 kts 122°
2026-05-06 16:41 51.44910 5.93700 34890 ft 440 kts 122°
2026-05-06 16:42 51.41765 6.02033 34889 ft 440 kts 122°
2026-05-06 16:42 51.38592 6.10413 34889 ft 440 kts 122°
2026-05-06 16:43 51.35413 6.18781 34889 ft 441 kts 122°
2026-05-06 16:43 51.32221 6.27158 34881 ft 441 kts 122°
2026-05-06 16:44 51.29023 6.35523 34888 ft 441 kts 122°
2026-05-06 16:44 51.25839 6.43824 34889 ft 441 kts 122°
2026-05-06 16:45 51.22623 6.52174 34886 ft 442 kts 123°
2026-05-06 16:45 51.19400 6.60525 34885 ft 442 kts 123°
2026-05-06 16:46 51.16176 6.68857 34878 ft 442 kts 123°
2026-05-06 16:46 51.12962 6.77132 34871 ft 442 kts 123°
2026-05-06 16:47 51.09724 6.85441 34860 ft 443 kts 123°
2026-05-06 16:47 51.06465 6.93769 34861 ft 443 kts 123°
2026-05-06 16:48 51.03209 7.02073 34862 ft 443 kts 123°
2026-05-06 16:48 50.99962 7.10323 34860 ft 443 kts 123°
2026-05-06 16:49 50.96690 7.18609 34861 ft 443 kts 123°
2026-05-06 16:49 50.93416 7.26879 34849 ft 442 kts 123°
2026-05-06 16:50 50.90140 7.35124 34850 ft 442 kts 123°
2026-05-06 16:50 50.86863 7.43346 34851 ft 441 kts 124°
2026-05-06 16:51 50.83580 7.51545 34851 ft 441 kts 124°
2026-05-06 16:51 50.80316 7.59686 34843 ft 441 kts 124°
2026-05-06 16:52 50.77028 7.67859 34835 ft 441 kts 124°
2026-05-06 16:52 50.73733 7.76024 34830 ft 441 kts 124°
2026-05-06 16:53 50.70428 7.84187 34816 ft 441 kts 124°
2026-05-06 16:53 50.67139 7.92284 34807 ft 442 kts 124°
2026-05-06 16:54 50.63823 8.00435 34801 ft 442 kts 124°
2026-05-06 16:54 50.60499 8.08564 34803 ft 441 kts 125°
2026-05-06 16:55 50.56821 8.16276 34808 ft 440 kts 131°
2026-05-06 16:55 50.52937 8.23711 34800 ft 440 kts 131°
2026-05-06 16:56 50.49111 8.31111 34807 ft 439 kts 130°
2026-05-06 16:56 50.45285 8.38593 34803 ft 440 kts 130°
2026-05-06 16:57 50.41458 8.46077 34800 ft 439 kts 130°
2026-05-06 16:57 50.37618 8.53531 34804 ft 439 kts 132°
2026-05-06 16:58 50.33557 8.60546 34803 ft 438 kts 135°
2026-05-06 16:58 50.29362 8.67446 34802 ft 438 kts 135°
2026-05-06 16:59 50.25171 8.74355 34806 ft 438 kts 135°
2026-05-06 16:59 50.20993 8.81278 34806 ft 438 kts 135°
2026-05-06 17:00 50.16819 8.88208 34801 ft 438 kts 135°
2026-05-06 17:00 50.12668 8.95090 34804 ft 439 kts 135°
2026-05-06 17:01 50.08482 9.02007 34797 ft 439 kts 136°
2026-05-06 17:01 50.04282 9.08921 34804 ft 440 kts 136°
2026-05-06 17:02 50.00076 9.15834 34806 ft 440 kts 136°
2026-05-06 17:02 49.95884 9.22697 34812 ft 441 kts 136°
2026-05-06 17:03 49.91663 9.29596 34808 ft 441 kts 136°
2026-05-06 17:03 49.87438 9.36481 34802 ft 440 kts 136°
2026-05-06 17:04 49.83219 9.43341 34807 ft 440 kts 136°
2026-05-06 17:04 49.79022 9.50140 34803 ft 439 kts 136°
2026-05-06 17:05 49.74797 9.56975 34799 ft 439 kts 137°
2026-05-06 17:05 49.70574 9.63778 34803 ft 438 kts 137°
2026-05-06 17:06 49.66354 9.70560 34804 ft 437 kts 137°
2026-05-06 17:06 49.62167 9.77279 34807 ft 437 kts 137°
2026-05-06 17:07 49.57946 9.84027 34813 ft 438 kts 137°
2026-05-06 17:07 49.53716 9.90780 34806 ft 438 kts 137°
2026-05-06 17:08 49.49474 9.97520 34797 ft 438 kts 137°
2026-05-06 17:08 49.45235 10.04244 34795 ft 438 kts 137°
2026-05-06 17:09 49.41012 10.10924 34791 ft 438 kts 137°
2026-05-06 17:09 49.36757 10.17640 34797 ft 439 kts 137°
2026-05-06 17:10 49.32500 10.24339 34799 ft 439 kts 137°
2026-05-06 17:10 49.28231 10.31047 34793 ft 439 kts 137°
2026-05-06 17:11 49.23986 10.37694 34787 ft 439 kts 138°
2026-05-06 17:11 49.19663 10.44256 34790 ft 438 kts 139°
2026-05-06 17:12 49.15283 10.50724 34790 ft 438 kts 139°
2026-05-06 17:12 49.10904 10.57184 34797 ft 438 kts 139°
2026-05-06 17:13 49.07264 10.62567 34801 ft 438 kts 139°
2026-05-06 17:13 49.02176 10.70084 34794 ft 438 kts 139°
2026-05-06 17:14 48.97800 10.76531 34800 ft 438 kts 139°
2026-05-06 17:14 48.93420 10.82966 34791 ft 438 kts 140°
2026-05-06 17:15 48.89039 10.89387 34790 ft 438 kts 140°
2026-05-06 17:15 48.84682 10.95755 34787 ft 438 kts 140°
2026-05-06 17:16 48.80289 11.02162 34784 ft 438 kts 140°
2026-05-06 17:16 48.75898 11.08549 34775 ft 437 kts 140°
2026-05-06 17:17 48.72252 11.13838 34775 ft 436 kts 140°
2026-05-06 17:17 48.67156 11.21218 34777 ft 436 kts 140°
2026-05-06 17:18 48.63514 11.26572 34777 ft 437 kts 137°
2026-05-06 17:18 48.59422 11.33295 34769 ft 438 kts 136°
2026-05-06 17:19 48.55363 11.40143 34769 ft 438 kts 136°
2026-05-06 17:19 48.50622 11.48068 34770 ft 438 kts 136°
2026-05-06 17:20 48.47189 11.53758 34769 ft 438 kts 136°
2026-05-06 17:20 48.43109 11.60481 34769 ft 438 kts 136°
2026-05-06 17:21 48.38992 11.67249 34779 ft 438 kts 137°
2026-05-06 17:21 48.34872 11.74002 34776 ft 438 kts 137°
2026-05-06 17:22 48.30746 11.80753 34782 ft 438 kts 137°
2026-05-06 17:22 48.26650 11.87438 34777 ft 438 kts 137°
2026-05-06 17:23 48.22519 11.94162 34778 ft 438 kts 137°
2026-05-06 17:23 48.18378 12.00883 34782 ft 439 kts 137°
2026-05-06 17:24 48.14230 12.07607 34787 ft 439 kts 137°
2026-05-06 17:24 48.10104 12.14259 34787 ft 440 kts 137°
2026-05-06 17:25 48.05943 12.20962 34789 ft 439 kts 137°
2026-05-06 17:25 48.01777 12.27660 34786 ft 440 kts 137°
2026-05-06 17:26 47.97607 12.34341 34765 ft 440 kts 137°
2026-05-06 17:26 47.93456 12.40982 34769 ft 440 kts 137°
2026-05-06 17:27 47.89283 12.47640 34774 ft 439 kts 137°
2026-05-06 17:27 47.85121 12.54264 34783 ft 438 kts 137°
2026-05-06 17:28 47.80952 12.60873 34785 ft 438 kts 137°
2026-05-06 17:28 47.76783 12.67476 34783 ft 438 kts 137°
2026-05-06 17:29 47.72612 12.74063 34785 ft 437 kts 137°
2026-05-06 17:29 47.68474 12.80580 34782 ft 437 kts 138°
2026-05-06 17:30 47.64206 12.87015 34786 ft 436 kts 139°
2026-05-06 17:30 47.59884 12.93337 34791 ft 436 kts 140°
2026-05-06 17:31 47.55580 12.99642 34799 ft 435 kts 139°
2026-05-06 17:31 47.51320 13.05908 34815 ft 434 kts 139°
2026-05-06 17:32 47.47029 13.12209 34803 ft 435 kts 139°
2026-05-06 17:32 47.42735 13.18503 34809 ft 434 kts 139°
2026-05-06 17:33 47.38444 13.24773 34826 ft 434 kts 140°
2026-05-06 17:33 47.34142 13.31044 34801 ft 435 kts 140°
2026-05-06 17:34 47.29985 13.37470 34807 ft 437 kts 136°
2026-05-06 17:34 47.25972 13.44230 34834 ft 439 kts 135°
2026-05-06 17:35 47.21965 13.51014 34810 ft 439 kts 135°
2026-05-06 17:35 47.17932 13.57767 34797 ft 440 kts 135°
2026-05-06 17:36 47.11899 13.67781 34841 ft 437 kts 135°
2026-05-06 17:36 47.07870 13.74439 34856 ft 437 kts 135°
2026-05-06 17:37 47.03819 13.81106 34847 ft 438 kts 136°
2026-05-06 17:37 46.99770 13.87758 34845 ft 437 kts 135°
2026-05-06 17:38 46.95744 13.94361 34841 ft 438 kts 135°
2026-05-06 17:38 46.91685 14.01000 34844 ft 437 kts 135°
2026-05-06 17:39 46.87626 14.07623 34852 ft 437 kts 135°
2026-05-06 17:39 46.83562 14.14240 34849 ft 437 kts 135°
2026-05-06 17:40 46.79519 14.20806 34850 ft 437 kts 135°
2026-05-06 17:40 46.75450 14.27399 34850 ft 437 kts 135°
2026-05-06 17:41 46.71376 14.33985 34851 ft 437 kts 135°
2026-05-06 17:41 46.67292 14.40560 34865 ft 437 kts 135°
2026-05-06 17:42 46.63212 14.47120 34858 ft 437 kts 135°
2026-05-06 17:42 46.59150 14.53636 34863 ft 438 kts 136°
2026-05-06 17:43 46.55059 14.60181 34871 ft 438 kts 136°
2026-05-06 17:43 46.50962 14.66722 34865 ft 438 kts 136°
2026-05-06 17:44 46.46860 14.73255 34870 ft 437 kts 136°
2026-05-06 17:44 46.42791 14.79717 34885 ft 437 kts 136°
2026-05-06 17:45 46.38675 14.86190 34886 ft 437 kts 135°
2026-05-06 17:45 46.34597 14.92738 34887 ft 439 kts 135°
2026-05-06 17:46 46.30471 14.99248 34891 ft 439 kts 136°
2026-05-06 17:46 46.26364 15.05681 34896 ft 437 kts 136°
2026-05-06 17:47 46.22246 15.12132 34894 ft 436 kts 136°
2026-05-06 17:47 46.18137 15.18559 34903 ft 435 kts 136°
2026-05-06 17:48 46.14037 15.24964 34904 ft 434 kts 136°
2026-05-06 17:48 46.09967 15.31304 34915 ft 433 kts 136°
2026-05-06 17:49 46.05882 15.37663 34909 ft 433 kts 136°
2026-05-06 17:49 46.01783 15.44022 34908 ft 433 kts 136°
2026-05-06 17:50 45.97679 15.50373 34900 ft 434 kts 136°
2026-05-06 17:50 45.93593 15.56680 34911 ft 434 kts 136°
2026-05-06 17:51 45.89481 15.63018 34906 ft 434 kts 136°
2026-05-06 17:51 45.85367 15.69348 34909 ft 434 kts 136°
2026-05-06 17:52 45.81241 15.75674 34917 ft 434 kts 136°
2026-05-06 17:52 45.77109 15.81991 34916 ft 434 kts 136°
2026-05-06 17:53 45.72975 15.88295 34917 ft 434 kts 136°
2026-05-06 17:53 45.68868 15.94549 34916 ft 434 kts 136°
2026-05-06 17:54 45.64728 16.00841 34916 ft 435 kts 136°
2026-05-06 17:54 45.60583 16.07127 34910 ft 435 kts 136°
2026-05-06 17:55 45.56426 16.13412 34911 ft 435 kts 136°
2026-05-06 17:55 45.52259 16.19700 34912 ft 436 kts 136°
2026-05-06 17:56 45.48119 16.25935 34915 ft 436 kts 136°
2026-05-06 17:56 45.43943 16.32203 34909 ft 437 kts 136°
2026-05-06 17:57 45.41381 16.36044 34925 ft 437 kts 136°
2026-05-06 17:57 45.37978 16.41138 34914 ft 437 kts 136°
2026-05-06 17:58 45.33790 16.47396 34916 ft 437 kts 136°
2026-05-06 17:58 45.29619 16.53610 34919 ft 438 kts 136°
2026-05-06 17:59 45.25409 16.59871 34917 ft 439 kts 136°
2026-05-06 17:59 45.21185 16.66140 34922 ft 440 kts 136°
2026-05-06 18:00 45.16839 16.72231 34915 ft 439 kts 140°
2026-05-06 18:00 45.12390 16.78068 34916 ft 439 kts 140°
2026-05-06 18:01 45.07896 16.83949 34920 ft 440 kts 140°
2026-05-06 18:01 45.03420 16.89841 34913 ft 440 kts 140°
2026-05-06 18:02 44.98936 16.95750 34915 ft 440 kts 140°
2026-05-06 18:02 44.94452 17.01651 34921 ft 440 kts 140°
2026-05-06 18:03 44.89995 17.07508 34920 ft 441 kts 140°
2026-05-06 18:03 44.85491 17.13409 34919 ft 442 kts 140°
2026-05-06 18:04 44.80977 17.19309 34914 ft 442 kts 140°
2026-05-06 18:04 44.76467 17.25191 34919 ft 442 kts 140°
2026-05-06 18:05 44.71978 17.31033 34914 ft 443 kts 140°
2026-05-06 18:05 44.67460 17.36901 34921 ft 442 kts 140°
2026-05-06 18:06 44.62933 17.42767 34924 ft 442 kts 140°
2026-05-06 18:06 44.58408 17.48615 34921 ft 442 kts 140°
2026-05-06 18:07 44.53910 17.54416 34933 ft 442 kts 140°
2026-05-06 18:07 44.49382 17.60246 34940 ft 442 kts 140°
2026-05-06 18:08 44.44856 17.66065 34932 ft 442 kts 140°
2026-05-06 18:08 44.40332 17.71865 34949 ft 441 kts 140°
2026-05-06 18:09 44.35901 17.77702 34941 ft 442 kts 134°
2026-05-06 18:09 44.31865 17.84188 34947 ft 441 kts 132°
2026-05-06 18:10 44.27871 17.90688 34955 ft 441 kts 132°
2026-05-06 18:10 44.23833 17.97120 34969 ft 441 kts 133°
2026-05-06 18:11 44.19724 18.03444 34971 ft 440 kts 137°
2026-05-06 18:11 44.15296 18.09230 34983 ft 440 kts 139°
2026-05-06 18:12 44.10772 18.14960 34986 ft 440 kts 139°
2026-05-06 18:12 44.06260 18.20729 34995 ft 441 kts 139°
2026-05-06 18:13 44.01753 18.26539 34999 ft 442 kts 139°
2026-05-06 18:13 43.97280 18.32309 35010 ft 443 kts 139°
2026-05-06 18:14 43.92756 18.38128 35014 ft 443 kts 139°
2026-05-06 18:14 43.88231 18.43937 35017 ft 443 kts 139°
2026-05-06 18:15 43.83707 18.49731 35019 ft 443 kts 139°
2026-05-06 18:15 43.79206 18.55490 35020 ft 443 kts 139°
2026-05-06 18:16 43.74672 18.61271 35014 ft 443 kts 139°
2026-05-06 18:16 43.70138 18.67040 35012 ft 443 kts 139°
2026-05-06 18:17 43.65603 18.72797 35021 ft 442 kts 139°
2026-05-06 18:17 43.61101 18.78504 35022 ft 442 kts 139°
2026-05-06 18:18 43.56575 18.84229 35028 ft 441 kts 139°
2026-05-06 18:18 43.52048 18.89941 35030 ft 441 kts 139°
2026-05-06 18:19 43.47520 18.95653 35027 ft 442 kts 138°
2026-05-06 18:19 43.43286 19.01730 35032 ft 443 kts 134°
2026-05-06 18:20 43.39139 19.08007 35026 ft 444 kts 134°
2026-05-06 18:20 43.34966 19.14276 35026 ft 445 kts 134°
2026-05-06 18:21 43.30768 19.20518 35031 ft 445 kts 135°
2026-05-06 18:21 43.26586 19.26701 35037 ft 445 kts 135°
2026-05-06 18:22 43.22358 19.32937 35026 ft 447 kts 135°
2026-05-06 18:22 43.18117 19.39181 35019 ft 448 kts 135°
2026-05-06 18:23 43.13870 19.45421 35026 ft 448 kts 134°
2026-05-06 18:23 43.09610 19.51670 35027 ft 449 kts 135°
2026-05-06 18:24 43.05373 19.57866 35028 ft 449 kts 135°
2026-05-06 18:24 43.01112 19.64087 35033 ft 448 kts 135°
2026-05-06 18:25 42.96846 19.70301 35029 ft 448 kts 135°
2026-05-06 18:25 42.92579 19.76500 35026 ft 448 kts 135°
2026-05-06 18:26 42.88335 19.82655 35031 ft 448 kts 135°
2026-05-06 18:26 42.84060 19.88840 35039 ft 448 kts 135°
2026-05-06 18:27 42.79779 19.95024 35041 ft 449 kts 135°
2026-05-06 18:27 42.75486 20.01208 35035 ft 449 kts 135°
2026-05-06 18:28 42.71483 20.07476 34704 ft 436 kts 130°
2026-05-06 18:28 42.69587 20.10644 34421 ft 428 kts 130°
2026-05-06 18:28 42.67721 20.13783 34033 ft 426 kts 130°
2026-05-06 18:29 42.65863 20.16897 33657 ft 423 kts 130°
2026-05-06 18:29 42.64010 20.19987 33284 ft 420 kts 130°
2026-05-06 18:29 42.62165 20.23044 32920 ft 417 kts 130°
2026-05-06 18:29 42.60327 20.26073 32543 ft 415 kts 130°
2026-05-06 18:30 42.58497 20.29083 32178 ft 412 kts 130°
2026-05-06 18:30 42.56677 20.32069 31818 ft 410 kts 130°
2026-05-06 18:30 42.54865 20.35040 31456 ft 407 kts 130°
2026-05-06 18:30 42.53091 20.37947 31103 ft 405 kts 131°
2026-05-06 18:31 42.51301 20.40876 30748 ft 403 kts 131°
2026-05-06 18:31 42.49520 20.43792 30398 ft 401 kts 131°
2026-05-06 18:31 42.47744 20.46691 30043 ft 398 kts 131°
2026-05-06 18:31 42.45980 20.49568 29689 ft 396 kts 131°
2026-05-06 18:32 42.44224 20.52429 29335 ft 393 kts 131°
2026-05-06 18:32 42.42483 20.55264 28980 ft 391 kts 131°
2026-05-06 18:32 42.40772 20.58048 28611 ft 389 kts 131°
2026-05-06 18:32 42.39049 20.60850 28251 ft 386 kts 131°
2026-05-06 18:33 42.37335 20.63633 27897 ft 384 kts 131°
2026-05-06 18:33 42.35628 20.66399 27546 ft 382 kts 131°
2026-05-06 18:33 42.33931 20.69149 27201 ft 380 kts 131°
2026-05-06 18:33 42.32243 20.71882 26858 ft 377 kts 131°
2026-05-06 18:34 42.30568 20.74594 26512 ft 374 kts 131°
2026-05-06 18:34 42.28906 20.77283 26171 ft 372 kts 131°
2026-05-06 18:34 42.27273 20.79920 25840 ft 370 kts 131°
2026-05-06 18:34 42.25630 20.82570 25509 ft 367 kts 131°
2026-05-06 18:35 42.23993 20.85209 25172 ft 365 kts 131°
2026-05-06 18:35 42.22365 20.87832 24834 ft 364 kts 131°
2026-05-06 18:35 42.20743 20.90443 24486 ft 362 kts 131°
2026-05-06 18:35 42.19135 20.93028 24163 ft 359 kts 131°
2026-05-06 18:36 42.17539 20.95594 23838 ft 356 kts 131°
2026-05-06 18:36 42.15954 20.98141 23509 ft 354 kts 131°
2026-05-06 18:36 42.14375 21.00674 23184 ft 352 kts 131°
2026-05-06 18:36 42.12828 21.03153 22859 ft 349 kts 131°
2026-05-06 18:37 42.11261 21.05637 22522 ft 346 kts 134°
2026-05-06 18:37 42.09579 21.07895 22311 ft 339 kts 137°
2026-05-06 18:37 42.07867 21.10066 21990 ft 337 kts 138°
2026-05-06 18:37 42.06158 21.12208 21673 ft 335 kts 138°
2026-05-06 18:38 42.04453 21.14344 21359 ft 334 kts 138°
2026-05-06 18:38 42.02760 21.16469 21037 ft 332 kts 138°
2026-05-06 18:38 42.01076 21.18588 20711 ft 331 kts 138°
2026-05-06 18:38 41.99421 21.20673 20381 ft 329 kts 138°
2026-05-06 18:39 41.97754 21.22777 20076 ft 328 kts 138°
2026-05-06 18:39 41.96095 21.24869 19759 ft 326 kts 137°
2026-05-06 18:39 41.94443 21.26953 19446 ft 325 kts 138°
2026-05-06 18:40 41.91160 21.31092 18812 ft 322 kts 137°
2026-05-06 18:40 41.89533 21.33141 18500 ft 320 kts 137°
2026-05-06 18:40 41.87913 21.35181 18188 ft 318 kts 137°
2026-05-06 18:40 41.86323 21.37181 17880 ft 317 kts 137°
2026-05-06 18:41 41.84716 21.39200 17578 ft 315 kts 137°
2026-05-06 18:41 41.83120 21.41205 17267 ft 315 kts 137°
2026-05-06 18:41 41.81527 21.43207 16959 ft 313 kts 137°
2026-05-06 18:41 41.79942 21.45196 16661 ft 311 kts 137°
2026-05-06 18:42 41.78365 21.47173 16346 ft 310 kts 137°
2026-05-06 18:42 41.76793 21.49141 16054 ft 308 kts 137°
2026-05-06 18:42 41.75234 21.51093 15752 ft 307 kts 137°
2026-05-06 18:42 41.73698 21.53014 15453 ft 305 kts 137°
2026-05-06 18:43 41.72149 21.54950 15153 ft 304 kts 137°
2026-05-06 18:43 41.70608 21.56875 14846 ft 302 kts 137°
2026-05-06 18:43 41.69073 21.58791 14550 ft 301 kts 137°
2026-05-06 18:43 41.67549 21.60692 14264 ft 299 kts 137°
2026-05-06 18:44 41.66032 21.62582 13960 ft 297 kts 137°
2026-05-06 18:44 41.64526 21.64459 13667 ft 295 kts 137°
2026-05-06 18:44 41.63045 21.66306 13373 ft 294 kts 137°
2026-05-06 18:44 41.61553 21.68162 13070 ft 293 kts 137°
2026-05-06 18:45 41.60061 21.70014 12786 ft 291 kts 137°
2026-05-06 18:45 41.58580 21.71854 12495 ft 290 kts 137°
2026-05-06 18:45 41.57105 21.73686 12203 ft 289 kts 137°
2026-05-06 18:45 41.55639 21.75508 11904 ft 288 kts 137°
2026-05-06 18:46 41.54177 21.77320 11611 ft 286 kts 137°
2026-05-06 18:46 41.52723 21.79124 11316 ft 285 kts 137°
2026-05-06 18:46 41.51275 21.80917 11020 ft 283 kts 138°
2026-05-06 18:46 41.49856 21.82672 10743 ft 281 kts 138°
2026-05-06 18:47 41.48427 21.84440 10455 ft 280 kts 138°
2026-05-06 18:47 41.46999 21.86205 10164 ft 279 kts 138°
2026-05-06 18:47 41.45581 21.87956 9868 ft 277 kts 138°
2026-05-06 18:47 41.44169 21.89701 9583 ft 276 kts 138°
2026-05-06 18:48 41.42757 21.91445 9302 ft 276 kts 139°
2026-05-06 18:48 41.41343 21.93157 9003 ft 274 kts 139°
2026-05-06 18:48 41.39942 21.94877 8716 ft 274 kts 138°
2026-05-06 18:48 41.38545 21.96603 8421 ft 274 kts 138°
2026-05-06 18:49 41.37171 21.98304 8134 ft 273 kts 138°
2026-05-06 18:49 41.35793 22.00014 7835 ft 270 kts 138°
2026-05-06 18:49 41.34420 22.01694 7555 ft 267 kts 139°
2026-05-06 18:49 41.33055 22.03362 7281 ft 266 kts 138°
2026-05-06 18:50 41.31699 22.05032 6988 ft 265 kts 138°
2026-05-06 18:50 41.30347 22.06698 6706 ft 264 kts 138°
2026-05-06 18:50 41.28997 22.08360 6415 ft 264 kts 138°
2026-05-06 18:50 41.27668 22.09992 6136 ft 263 kts 138°
2026-05-06 18:51 41.26331 22.11633 5848 ft 262 kts 138°
2026-05-06 18:51 41.25000 22.13266 5601 ft 260 kts 137°
2026-05-06 18:51 41.23682 22.14880 5653 ft 254 kts 137°
2026-05-06 18:51 41.22367 22.16488 5936 ft 263 kts 138°
2026-05-06 18:52 41.21011 22.18142 6200 ft 269 kts 138°
2026-05-06 18:52 41.19637 22.19821 6712 ft 269 kts 138°
2026-05-06 18:52 41.18248 22.21522 6988 ft 272 kts 138°
2026-05-06 18:52 41.16875 22.23195 7016 ft 271 kts 137°
2026-05-06 18:53 41.15471 22.24870 7137 ft 273 kts 139°
2026-05-06 18:53 41.14009 22.26512 7276 ft 277 kts 140°
2026-05-06 18:53 41.12547 22.28144 7254 ft 273 kts 140°
2026-05-06 18:53 41.11104 22.29766 7017 ft 271 kts 140°
2026-05-06 18:54 41.09672 22.31392 6669 ft 272 kts 140°
2026-05-06 18:54 41.08250 22.33027 6387 ft 270 kts 139°
2026-05-06 18:54 41.06841 22.34668 6077 ft 269 kts 139°
2026-05-06 18:54 41.05442 22.36315 5874 ft 265 kts 139°
2026-05-06 18:55 41.04090 22.37927 5880 ft 259 kts 138°
2026-05-06 18:55 41.02775 22.39516 5880 ft 262 kts 138°
2026-05-06 18:55 41.01423 22.41174 5889 ft 267 kts 137°
2026-05-06 18:55 41.00061 22.42866 5894 ft 269 kts 137°
2026-05-06 18:56 40.98703 22.44581 5733 ft 267 kts 136°
2026-05-06 18:56 40.97391 22.46275 5754 ft 262 kts 134°
2026-05-06 18:56 40.96280 22.48183 5752 ft 262 kts 124°
2026-05-06 18:56 40.95296 22.50234 5760 ft 266 kts 122°
2026-05-06 18:57 40.94317 22.52330 5768 ft 270 kts 122°
2026-05-06 18:57 40.93327 22.54436 5764 ft 269 kts 123°
2026-05-06 18:57 40.92349 22.56494 5760 ft 267 kts 123°
2026-05-06 18:57 40.91356 22.58563 5758 ft 267 kts 123°
2026-05-06 18:58 40.90356 22.60630 5759 ft 266 kts 123°
2026-05-06 18:58 40.89356 22.62686 5759 ft 266 kts 123°
2026-05-06 18:58 40.88352 22.64745 5757 ft 266 kts 123°
2026-05-06 18:58 40.87345 22.66800 5758 ft 266 kts 123°
2026-05-06 18:59 40.86335 22.68857 5761 ft 267 kts 123°
2026-05-06 18:59 40.85327 22.70912 5758 ft 266 kts 123°
2026-05-06 18:59 40.84344 22.72910 5600 ft 261 kts 124°
2026-05-06 18:59 40.83351 22.74924 5309 ft 261 kts 123°
2026-05-06 19:00 40.82368 22.76925 5106 ft 255 kts 123°
2026-05-06 19:00 40.81429 22.78831 5025 ft 240 kts 124°
2026-05-06 19:00 40.80547 22.80622 4915 ft 226 kts 123°
2026-05-06 19:00 40.79987 22.81754 4844 ft 219 kts 124°
2026-05-06 19:01 40.78919 22.83920 4674 ft 204 kts 124°
2026-05-06 19:01 40.78141 22.85441 4570 ft 197 kts 123°
2026-05-06 19:01 40.77404 22.86938 4500 ft 196 kts 124°
2026-05-06 19:01 40.76647 22.88458 4312 ft 200 kts 127°
2026-05-06 19:02 40.75568 22.89524 4089 ft 193 kts 163°
2026-05-06 19:02 40.74295 22.89950 3899 ft 186 kts 166°
2026-05-06 19:02 40.73080 22.90352 3720 ft 173 kts 166°
2026-05-06 19:02 40.71974 22.90713 3554 ft 155 kts 166°
2026-05-06 19:03 40.70962 22.91037 3543 ft 147 kts 166°
2026-05-06 19:03 40.69949 22.91361 3387 ft 151 kts 166°
2026-05-06 19:03 40.68929 22.91686 3194 ft 150 kts 166°
2026-05-06 19:03 40.67932 22.92003 3002 ft 149 kts 166°
2026-05-06 19:04 40.66929 22.92323 2809 ft 149 kts 166°
2026-05-06 19:04 40.65924 22.92644 2612 ft 149 kts 166°
2026-05-06 19:04 40.64922 22.92964 2413 ft 147 kts 166°
2026-05-06 19:04 40.63928 22.93281 2218 ft 147 kts 166°
2026-05-06 19:05 40.62930 22.93599 2016 ft 147 kts 166°
2026-05-06 19:05 40.61935 22.93917 1826 ft 147 kts 167°
2026-05-06 19:05 40.60945 22.94232 1632 ft 146 kts 167°
2026-05-06 19:05 40.59971 22.94544 1440 ft 146 kts 166°
2026-05-06 19:06 40.58984 22.94858 1251 ft 145 kts 166°
2026-05-06 19:06 40.58003 22.95171 1055 ft 145 kts 166°
2026-05-06 19:06 40.57020 22.95470 842 ft 146 kts 168°
2026-05-06 19:06 40.56037 22.95771 620 ft 144 kts 165°
2026-05-06 19:07 40.55076 22.96098 459 ft 142 kts 167°
2026-05-06 19:07 40.54111 22.96400 333 ft 142 kts 165°
2026-05-06 19:07 40.53191 22.96705 103 ft 132 kts 166°
2026-05-06 19:07 40.52338 22.96984 14 ft 117 kts 166°
2026-05-06 19:08 40.51703 22.97180 17 ft 74 kts 166°
2026-05-06 19:08 40.51337 22.97298 17 ft 43 kts 166°
2026-05-06 19:08 40.51059 22.97386 13 ft 35 kts 166°
2026-05-06 19:08 40.50963 22.97514 13 ft 17 kts 72°
2026-05-06 19:09 40.51023 22.97580 14 ft 11 kts 356°
2026-05-06 19:09 40.51098 22.97556 14 ft 11 kts 345°
2026-05-06 19:09 40.51170 22.97532 14 ft 11 kts 347°
2026-05-06 19:09 40.51241 22.97512 15 ft 10 kts 347°
2026-05-06 19:10 40.51308 22.97491 14 ft 10 kts 344°
2026-05-06 19:10 40.51384 22.97464 14 ft 12 kts 346°
2026-05-06 19:10 40.51470 22.97436 15 ft 13 kts 346°
2026-05-06 19:10 40.51555 22.97412 15 ft 12 kts 348°
2026-05-06 19:11 40.51638 22.97388 14 ft 12 kts 345°
2026-05-06 19:11 40.51718 22.97360 14 ft 12 kts 345°
2026-05-06 19:11 40.51796 22.97335 14 ft 11 kts 346°
2026-05-06 19:11 40.51873 22.97310 12 ft 12 kts 346°
2026-05-06 19:12 40.51955 22.97284 11 ft 12 kts 346°
2026-05-06 19:12 40.52034 22.97259 13 ft 12 kts 348°
2026-05-06 19:12 40.52112 22.97237 13 ft 11 kts 347°
2026-05-06 19:12 40.52188 22.97213 13 ft 11 kts 346°
2026-05-06 19:13 40.52262 22.97190 13 ft 11 kts 346°
2026-05-06 19:13 40.52335 22.97178 13 ft 10 kts
2026-05-06 19:13 40.52386 22.97236 14 ft 10 kts 72°
2026-05-06 19:13 40.52388 22.97327 14 ft 10 kts 96°
2026-05-06 19:14 40.52333 22.97381 14 ft 10 kts 149°
2026-05-06 19:14 40.52340 22.97447 14 ft 10 kts 19°
2026-05-06 19:14 40.52384 22.97485 14 ft 5 kts 42°
2026-05-06 19:14 40.52405 22.97513 14 ft 2 kts 44°
2026-05-06 19:15 40.52411 22.97520 14 ft 0 kts 44°